Flag for U.S.A. Weather past 2 weeks in Springfield, Illinois, U.S.A.

Now
81 °F

Scattered clouds.


Feels Like: 85 °F
Forecast: 69 / 80 °F
Wind: 9 mph from Southwest

Location: Capital Airport

Current Time: Aug 30, 2014 at 11:33:33 AM

Latest Report: Aug 30, 2014 at 10:52 AM


Visibility: 10 mi

Pressure: 29.92 "Hg

Humidity: 69%

Dew point: 70 °F

Location of SpringfieldLocation

Historic Weather in Springfield — Graph

°F

Springfield temperature yesterday

Maximum temperature yesterday: 87 °F (at 1:52 PM)
Minimum temperature yesterday: 71 °F (at 12:52 AM)
Average temperature yesterday: 77 °F

Past Weeks' High & Low Weather Summary

 TemperatureHumidityPressure
High96 °F (Aug 25, 4:52 PM)100% (Aug 18, 3:52 AM)30.11 "Hg (Aug 18, 3:52 AM)
Low63 °F (Aug 18, 3:52 AM)51% (Aug 25, 4:52 PM)29.76 "Hg (Aug 19, 4:52 PM)
Average78 °F81%29.94 "Hg
* Reported Aug 15 9:52 AM — Aug 30 9:52 AM, Springfield, Weather by CustomWeather, © 2014

Note: Actual official high and low records may vary slightly from our data, if they occured in-between our weather recording intervals... More about our weather records

Advertising

Springfield weather history for previous 24 hours

 ConditionsComfort  
Time TempWeatherWind HumidityBarometerVisibility
9:52 AM
Aug 30
79 °FSunny.12 mph74%29.92 "Hg10 mi
8:52 AM76 °FScattered clouds.9 mph82%29.91 "Hg10 mi
7:52 AM74 °FScattered clouds.9 mph85%29.91 "Hg10 mi
6:52 AM73 °FClear.9 mph88%29.89 "Hg10 mi
5:52 AM73 °FClear.7 mph88%29.89 "Hg10 mi
4:52 AM74 °FClear.7 mph85%29.88 "Hg10 mi
3:52 AM75 °FClear.12 mph82%29.88 "Hg10 mi
2:52 AM75 °FClear.9 mph85%29.88 "Hg10 mi
1:52 AM76 °FClear.8 mph82%29.87 "Hg10 mi
12:52 AM76 °FPassing clouds.9 mph82%29.88 "Hg10 mi
11:52 PM
Aug 29
75 °FPassing clouds.10 mph85%29.87 "Hg10 mi
10:52 PM74 °FPassing clouds.6 mph91%29.87 "Hg10 mi
9:52 PM73 °FPassing clouds.5 mph94%29.87 "Hg9 mi
8:52 PM74 °FMostly cloudy.5 mph88%29.88 "Hg10 mi
7:52 PM82 °FMore clouds than sun.10 mph65%29.84 "Hg10 mi
6:52 PM83 °FSunny.9 mph61%29.84 "Hg10 mi
5:52 PM86 °FPassing clouds.13 mph59%29.83 "Hg10 mi
4:52 PM87 °FSunny.12 mph57%29.84 "Hg10 mi
3:52 PM85 °FBroken clouds.8 mph61%29.85 "Hg10 mi
1:52 PM87 °FBroken clouds.8 mph61%29.90 "Hg10 mi
12:52 PM84 °FScattered clouds.7 mph67%29.92 "Hg10 mi
11:52 AM84 °FSunny.8 mph70%29.94 "Hg10 mi
Weather by CustomWeather, © 2014

See weather overviewHow to use our weather pages